Flag for Switzerland Weather past 2 weeks in Weinfelden, Thurgau, Switzerland

Now
41 °F

Clear.


Feels Like: 41 °F
Forecast: 35 / 66 °F
Wind: 2 mph from North

Location: Konstanz

Current Time: Sep 23, 2014 at 6:47:28 AM

Latest Report: Sep 23, 2014 at 6:00 AM


Visibility: 9 mi

Pressure: 30.22 "Hg

Humidity: 94%

Dew point: 40 °F

Location of WeinfeldenLocation

Historic Weather in Weinfelden — Graph

°F

Weinfelden temperature yesterday

Maximum temperature yesterday: 59 °F (at 2:00 PM)
Minimum temperature yesterday: 49 °F (at 11:00 PM)
Average temperature yesterday: 55 °F

Past Weeks' High & Low Weather Summary

 TemperatureHumidityPressure
High77 °F (Sep 8, 3:00 PM)99% (Sep 16, 4:00 AM)30.22 "Hg (Sep 16, 4:00 AM)
Low42 °F (Sep 23, 5:00 AM)47% (Sep 11, 3:00 PM)29.80 "Hg (Sep 17, 6:00 PM)
Average61 °F83%30.00 "Hg
* Reported Sep 8 5:00 AM — Sep 23 5:00 AM, Weinfelden, Weather by CustomWeather, © 2014

Note: Actual official high and low records may vary slightly from our data, if they occured in-between our weather recording intervals... More about our weather records

Advertising

Weinfelden weather history for previous 24 hours

 ConditionsComfort  
Time TempWeatherWind HumidityBarometerVisibility
5:00 AM
Sep 23
42 °FClear.2 mph94%30.21 "Hg9 mi
4:00 AM42 °FClear.1 mph91%30.22 "Hg12 mi
3:00 AM43 °FClear.2 mph92%30.22 "Hg13 mi
2:00 AM44 °FClear.2 mph90%30.20 "Hg15 mi
1:00 AM45 °FClear.1 mph85%30.21 "Hg17 mi
12:00 AM47 °FClear.1 mph81%30.21 "Hg19 mi
11:00 PM
Sep 22
49 °FPassing clouds.3 mph74%30.19 "Hg22 mi
10:00 PM51 °FPassing clouds.2 mph72%30.19 "Hg19 mi
9:00 PM53 °FOvercast.2 mph69%30.18 "Hg11 mi
8:00 PM54 °FPassing clouds.2 mph65%30.15 "Hg12 mi
7:00 PM55 °FPartly sunny.2 mph60%30.13 "Hg12 mi
6:00 PM56 °FPartly sunny.3 mph58%30.10 "Hg16 mi
5:00 PM56 °FOvercast.5 mph59%30.08 "Hg16 mi
4:00 PM58 °FOvercast.5 mph58%30.07 "Hg22 mi
3:00 PM59 °FPartly sunny.5 mph51%30.06 "Hg22 mi
2:00 PM59 °FPartly sunny.3 mph50%30.08 "Hg19 mi
1:00 PM59 °FScattered clouds.3 mph55%30.11 "Hg17 mi
12:00 PM59 °FScattered clouds.3 mph64%30.12 "Hg14 mi
11:00 AM56 °FScattered clouds.3 mph76%30.14 "Hg12 mi
10:00 AM54 °FPassing clouds.1 mph79%30.14 "Hg9 mi
9:00 AM53 °FPassing clouds.2 mph86%30.14 "Hg11 mi
8:00 AM51 °FScattered clouds.1 mph93%30.15 "Hg11 mi
7:00 AM51 °FPassing clouds.2 mph93%30.13 "Hg6 mi
6:00 AM52 °FPassing clouds.2 mph94%30.11 "Hg6 mi
Weather by CustomWeather, © 2014

See weather overviewHow to use our weather pages